Location: Oriwa
(40.7500°S, 175.3333°E)
Time: 14:12:40
(UTC+00:00)

Cosmos 1782 Rocket - Pass Details

Date: 03 February 2023
Orbit: 605 x 631 km, 82.5° (Epoch: 30 March)

Event Time Altitude Azimuth Distance (km) Brightness Sun altitude
Rises 14:58:10 0° 187° (S) 2,904 7.7 -23.5°
Reaches altitude 10° 15:00:25 10° 184° (S) 1,990 6.8 -23.3°
Maximum altitude 15:04:49 76° 98° (E) 639 3.6 -22.7°
Enters shadow 15:05:47 52° 28° (NNE) 761 3.8 -22.6°
